Regional Weather Roundup
Issued by NWS

Home | Current Version | Previous Version | Graphics & Text | Print | Product List | Glossary On
Versions: 1 2 3 4 5 6 7 8 9 10 11 12 13 14 15 16 17 18 19 20 21 22 23 24 25 26 27 28 29 30 31 32 33 34 35 36 37 38 39 40 41 42 43 44 45 46 47 48 49 50
000
ASUS43 KLMK 230310
RWRKY
KENTUCKY REGIONAL WEATHER ROUNDUP
NATIONAL WEATHER SERVICE LOUISVILLE KY
1100 PM EDT TUE JUL 22 2014

NOTE "FAIR" INDICATES FEW OR NO CLOUDS BELOW 12,000 FEET
WITH NO SIGNIFICANT WEATHER AND/OR OBSTRUCTIONS TO VISIBILITY.

KYZ001>023-026-027-061>063-070>075-230400-
WESTERN AND SOUTH CENTRAL KENTUCKY

CITY           SKY/WX    TMP DP  RH WIND       PRES   REMARKS
PADUCAH        CLEAR     76  71  85 CALM      30.06R
HENDERSON      CLEAR    N/A N/A N/A MISG        N/A
OWENSBORO      CLEAR     80  72  76 NW6       30.06R
HOPKINSVILLE   CLEAR     81  73  77 SW5       30.07R
BOWLING GREEN  CLEAR     80  69  69 S3        30.07R
GLASGOW        CLEAR     78  68  73 CALM      30.08S
$$

KYZ024-025-028>034-038-045-046-053-230400-
NORTH CENTRAL KENTUCKY

CITY           SKY/WX    TMP DP  RH WIND       PRES   REMARKS
LOUISVILLE/SDF PTCLDY    83  71  67 W6        30.05R
LOUISVILLE/LOU CLEAR     85  70  60 NW3       30.05R
FORT KNOX      CLEAR     75  73  92 CALM      30.06R
$$

KYZ035>037-039>044-047>052-055>060-089>105-230400-
NORTHEAST KENTUCKY

CITY           SKY/WX    TMP DP  RH WIND       PRES   REMARKS
LEXINGTON      CLEAR     78  69  73 S5        30.08R
COVINGTON      CLEAR     74  68  81 CALM      30.06R
FRANKFORT      CLEAR     77  72  84 CALM      30.06R
$$

KYZ054-064>069-076>088-106>120-230400-
SOUTHEAST KENTUCKY

CITY           SKY/WX    TMP DP  RH WIND       PRES   REMARKS
JACKSON        CLEAR     77  69  76 CALM      30.11R
LONDON         PTCLDY    76  71  85 CALM      30.12R
SOMERSET       CLEAR     72  72 100 CALM      30.11R FOG
MIDDLESBORO    CLEAR     74  70  87 CALM      30.13R
MONTICELLO     CLEAR     74  73  96 CALM      30.12R
$$



USA.gov is the U.S. government's official web portal to all federal, state and local government web resources and services.